Regional Weather Roundup
Issued by NWS

Home | Current Version | Previous Version | Text Only | Print | Product List | Glossary On
Versions: 1 2 3 4 5 6 7 8 9 10 11 12 13 14 15 16 17 18 19 20 21 22 23 24 25 26 27 28 29 30 31 32 33 34 35 36 37 38 39 40 41 42 43 44 45 46 47 48 49 50
000
ASUS43 KDTX 221901
RWRMI
MICHIGAN HOURLY REGIONAL WEATHER ROUNDUP
NATIONAL WEATHER SERVICE DETROIT/PONTIAC MI
300 PM EDT TUE JUL 22 2014

NOTE: "FAIR" INDICATES FEW OR NO CLOUDS BELOW 12,000 FEET WITH NO
SIGNIFICANT WEATHER AND/OR OBSTRUCTION TO VISIBILITY.

MIZ047>049-052>055-059>063-066>070-074>076-081>083-222000-
SOUTHEAST LOWER MICHIGAN

CITY           SKY/WX    TMP DP  RH WIND       PRES   REMARKS
ADRIAN         SUNNY     90  63  40 SW13      30.03F HX  91
ALMA           SUNNY     85  65  51 SW14G20   29.98F
ANN ARBOR      SUNNY     88  63  43 SW10G21   30.02S
BAD AXE        SUNNY     85  65  49 SW14G24   29.97F
CARO           SUNNY     89  66  46 SW13      29.97F HX  91
DETROIT CITY   SUNNY     89  65  44 SW12G22   30.00F HX  91
DETROIT        MOSUNNY   89  64  43 SW16      30.02S HX  90
FLINT          SUNNY     88  66  48 SW12G21   29.99F HX  90
GROSSE ILE     SUNNY     82  72  69 SE12      30.01S
HILLSDALE      MOSUNNY   86  66  50 W10G18    30.05F
HOWELL         MOSUNNY   85  64  48 SW9       30.02S

CITY           SKY/WX    TMP DP  RH WIND       PRES   REMARKS
JACKSON        MOSUNNY   86  67  52 SW15G21   30.03F
LAMBERTVILLE   SUNNY     90  63  40 SW8       30.03F HX  90
LANSING        MOSUNNY   86  67  52 SW20      30.01F
LAPEER         FAIR      87  62  41 SW12G20   30.00S
MASON          MOSUNNY   84  66  53 SW9G18    30.02F
MONROE         SUNNY     90  63  40 SW7G20    30.01S HX  90
MT. CLEMENS    SUNNY     87  66  50 S15       29.99F
PONTIAC        SUNNY     88  63  43 SW10G20   30.01S
PORT HOPE        N/A     86  65  49 SW8G18    29.93F
PORT HURON     SUNNY     84  66  54 S13G18    30.00S
TRI CITIES     SUNNY     88  67  49 SW18G28   29.96F HX  91
TROY           SUNNY     88  62  41 SW13G20   30.01F
SAGINAW HB     SUNNY     88  64  45 SW15G25   29.96F
$$
MIZ043>046-050>051-056>058-064>065-071>073-077>080-222000-
SOUTHWEST LOWER MICHIGAN

CITY           SKY/WX    TMP DP  RH WIND       PRES   REMARKS
BATTLE CREEK   MOSUNNY   86  66  51 SW15      30.03F
BENTON HARBOR  SUNNY     85  67  54 S14       29.99F
BIG RAPIDS     MOSUNNY   83  65  54 SW15G25   29.94F
COLDWATER      SUNNY     87  68  53 SW15      30.04F HX  90
FREMONT        CLOUDY    85  64  49 S22       29.95F
HOLLAND        SUNNY     87  67  51 SW20G28   29.99F HX  90
GRAND RAPIDS   MOSUNNY   87  68  52 SW13      30.00F HX  90
IONIA          FAIR      85  66  51 W15G22    29.99F
KALAMAZOO      MOSUNNY   85  67  54 SW13      30.03F
LUDINGTON      SUNNY     81  69  66 SW18G29   29.90F
MARSHALL       MOSUNNY   85  67  54 SW9       30.03F
MOUNT PLEASANT SUNNY     86  67  52 SW16      29.95F
MUSKEGON       PTSUNNY   83  66  56 S21G31    29.96F
SOUTH HAVEN    SUNNY     85  70  60 S9        29.99F
$$
MIZ016>042-222000-
NORTHERN LOWER MICHIGAN

CITY           SKY/WX    TMP DP  RH WIND       PRES   REMARKS
ALPENA         MOSUNNY   88  66  48 S13G21    29.85F HX  90
BEAVER ISLAND  CLOUDY    73  67  80 SW16G31   29.82S
BELLAIRE       CLOUDY    85  68  55 S12G25    29.83F
CADILLAC       PTSUNNY   83  69  62 S23G32    29.91F
CHARLEVOIX     CLOUDY    80  68  67 SW10G20   29.87R
FRANKFORT      CLOUDY    80  65  61 SW14G29   29.88R
GAYLORD        CLOUDY    83  65  54 SW17G33   29.88S
GRAYLING       PTSUNNY   83  64  51 SW9G21    29.90F
HARBOR SPRINGS LGT RAIN  74  71  91 N6        29.86R
HOUGHTON LAKE  MOSUNNY   85  65  51 SW14G24   29.92F
MANISTEE       PTSUNNY   82  66  57 SW15G29   29.89F
OSCODA         MOSUNNY   86  64  47 S16G26    29.89F
PELLSTON       TSTM      74  71  91 SW10      29.87R FOG
ROGERS CITY    MOSUNNY   88  69  54 SW14G22   29.84S HX  92
TRAVERSE CITY  MOSUNNY   87  67  51 SW16G31   29.82F HX  90
$$
MIZ007>008-015-222000-
EASTERN UPPER MICHIGAN

CITY           SKY/WX    TMP DP  RH WIND       PRES   REMARKS
KINROSS        CLOUDY    73  72  94 SW10G20   29.83R
MACKINAC ISLAN CLOUDY    72  70  93 SW15G24   29.84R
NEWBERRY       PTSUNNY   73  66  78 SW15G24   29.81R
S. S. MARIE    CLOUDY    73  69  87 SW14G25   29.82R FOG
MUNISING         N/A     80  58  46 NW18G33   29.80R
$$
MIZ004>006-011>014-085-222000-
CENTRAL UPPER MICHIGAN

CITY           SKY/WX    TMP DP  RH WIND       PRES   REMARKS
MANISTIQUE     MOSUNNY   67  62  83 S14G29    29.79F
ESCANABA       MOSUNNY   90  68  48 W17G23    29.76R HX  93
MENOMINEE      MOSUNNY   88  73  62 SW13      29.80S HX  96
SAWYER-GWINN   MOSUNNY   81  63  54 W16G25    29.84R
$$
MIZ001>003-009>011-084-222000-
WESTERN UPPER MICHIGAN

CITY           SKY/WX    TMP DP  RH WIND       PRES   REMARKS
IRON MOUNTAIN  PTSUNNY   84  64  50 NW14G24   29.85R
HOUGHTON       CLOUDY    70  61  73 NW26G39   29.84R
IRONWOOD       CLOUDY    70  63  78 NW12G18   29.92R
$$

ABBREVIATIONS USED IN REMARKS
   TC - TEMPERATURE IN CELSIUS
  WCI - WIND CHILL INDEX
   HX - HEAT INDEX
  VSB - VISIBILITY




USA.gov is the U.S. government's official web portal to all federal, state and local government web resources and services.